When you browse on this site, cookies collect data to enhance your experience and personalize the content and advertising you see.
Visit our Privacy Policy to learn more. By continuing to use the site, you agree to this use of cookies and data.
EN

Hourly Weather Amlame

Today, 13 July, Monday

Time Temperature Precipitation Wind Pressure Humidity
00:00 +23°C° 0.1 mm 1 mps 725 mmHg 96%
01:00 +23°C° 0 mm 1 mps 724 mmHg 96%
02:00 +23°C° 0 mm 1 mps 724 mmHg 97%
03:00 +23°C° 0 mm 1 mps 723 mmHg 97%
04:00 +23°C° 0.1 mm 1 mps 724 mmHg 97%
05:00 +23°C° 0.1 mm 1 mps 724 mmHg 97%
06:00 +23°C° 0.1 mm 1 mps 724 mmHg 97%
07:00 +23°C° 0.1 mm 1 mps 724 mmHg 95%
08:00 +24°C° 0.1 mm 2 mps 724 mmHg 92%
09:00 +25°C° 0.1 mm 2 mps 725 mmHg 89%
10:00 +26°C° 0 mm 2 mps 724 mmHg 85%
11:00 +27°C° 0 mm 2 mps 724 mmHg 80%
12:00 +28°C° 0 mm 2 mps 724 mmHg 76%
13:00 +28°C° 0.5 mm 2 mps 723 mmHg 77%
14:00 +28°C° 0.5 mm 2 mps 722 mmHg 78%
15:00 +28°C° 0.5 mm 2 mps 722 mmHg 79%
16:00 +27°C° 0.4 mm 2 mps 722 mmHg 83%
17:00 +26°C° 0.4 mm 1 mps 722 mmHg 87%
18:00 +25°C° 0.4 mm 1 mps 722 mmHg 90%
19:00 +25°C° 0.2 mm 1 mps 722 mmHg 92%
20:00 +24°C° 0.2 mm 1 mps 723 mmHg 93%
21:00 +24°C° 0.2 mm 1 mps 723 mmHg 95%
22:00 +24°C° 0.1 mm 1 mps 723 mmHg 96%
23:00 +23°C° 0.1 mm 1 mps 723 mmHg 96%

Tomorrow, 14 July, Tuesday

Time Temperature Precipitation Wind Pressure Humidity
00:00 +23°C° 0.1 mm 2 mps 723 mmHg 97%
01:00 +23°C° 0.3 mm 2 mps 723 mmHg 97%
02:00 +23°C° 0.3 mm 2 mps 723 mmHg 97%
03:00 +22°C° 0.3 mm 3 mps 722 mmHg 96%
04:00 +22°C° 0.5 mm 3 mps 722 mmHg 96%
05:00 +22°C° 0.5 mm 3 mps 723 mmHg 96%
06:00 +22°C° 0.5 mm 3 mps 723 mmHg 96%
07:00 +22°C° 0.2 mm 3 mps 723 mmHg 94%
08:00 +22°C° 0.2 mm 3 mps 724 mmHg 93%
09:00 +24°C° 0.2 mm 3 mps 724 mmHg 91%
10:00 +24°C° 0.2 mm 3 mps 724 mmHg 90%
11:00 +24°C° 0.2 mm 3 mps 724 mmHg 89%
12:00 +24°C° 0.2 mm 3 mps 724 mmHg 88%
13:00 +24°C° 0.4 mm 3 mps 723 mmHg 89%
14:00 +24°C° 0.4 mm 3 mps 722 mmHg 91%
15:00 +22°C° 0.4 mm 3 mps 722 mmHg 93%
16:00 +22°C° 0.2 mm 3 mps 722 mmHg 93%
17:00 +22°C° 0.2 mm 3 mps 722 mmHg 93%
18:00 +23°C° 0.2 mm 2 mps 722 mmHg 93%
19:00 +23°C° 0 mm 2 mps 723 mmHg 93%
20:00 +23°C° 0 mm 2 mps 723 mmHg 93%
21:00 +21°C° 0 mm 2 mps 724 mmHg 93%
22:00 +21°C° 0 mm 2 mps 723 mmHg 94%
23:00 +21°C° 0 mm 2 mps 723 mmHg 95%

Day after tomorrow, 15 July, Wednesday

Time Temperature Precipitation Wind Pressure Humidity
00:00 +21°C° 0 mm 2 mps 723 mmHg 95%
01:00 +21°C° 0 mm 2 mps 723 mmHg 96%
02:00 +21°C° 0 mm 2 mps 723 mmHg 96%
03:00 +20°C° 0 mm 2 mps 723 mmHg 97%
04:00 +21°C° 0 mm 1 mps 723 mmHg 97%
05:00 +21°C° 0 mm 1 mps 723 mmHg 96%
06:00 +21°C° 0 mm 1 mps 723 mmHg 96%
07:00 +23°C° 0 mm 1 mps 724 mmHg 91%
08:00 +24°C° 0 mm 2 mps 725 mmHg 86%
09:00 +25°C° 0 mm 2 mps 725 mmHg 80%
10:00 +26°C° 0 mm 3 mps 725 mmHg 76%
11:00 +27°C° 0 mm 3 mps 725 mmHg 72%
12:00 +28°C° 0 mm 3 mps 725 mmHg 68%
13:00 +28°C° 0 mm 3 mps 724 mmHg 68%
14:00 +28°C° 0 mm 3 mps 724 mmHg 68%
15:00 +28°C° 0 mm 3 mps 723 mmHg 67%
16:00 +27°C° 0 mm 3 mps 723 mmHg 73%
17:00 +26°C° 0 mm 2 mps 723 mmHg 78%
18:00 +25°C° 0 mm 1 mps 723 mmHg 83%
19:00 +24°C° 0 mm 1 mps 723 mmHg 85%
20:00 +23°C° 0 mm 1 mps 724 mmHg 87%
21:00 +21°C° 0 mm 0 mps 724 mmHg 90%
22:00 +23°C° 0 mm 1 mps 724 mmHg 90%
23:00 +22°C° 0 mm 1 mps 724 mmHg 90%

16 July, Thursday

Time Temperature Precipitation Wind Pressure Humidity
00:00 +22°C° 0 mm 1 mps 724 mmHg 91%
01:00 +22°C° 0 mm 1 mps 724 mmHg 92%
02:00 +22°C° 0 mm 1 mps 724 mmHg 93%
03:00 +22°C° 0 mm 1 mps 724 mmHg 94%
04:00 +22°C° 0 mm 1 mps 724 mmHg 95%
05:00 +22°C° 0 mm 1 mps 724 mmHg 95%
06:00 +22°C° 0 mm 1 mps 724 mmHg 96%
07:00 +23°C° 0 mm 1 mps 725 mmHg 90%
08:00 +25°C° 0 mm 1 mps 726 mmHg 84%
09:00 +26°C° 0 mm 2 mps 726 mmHg 78%
10:00 +27°C° 0.2 mm 2 mps 726 mmHg 75%
11:00 +27°C° 0.2 mm 2 mps 726 mmHg 72%
12:00 +28°C° 0.2 mm 2 mps 726 mmHg 69%
13:00 +28°C° 0.4 mm 2 mps 725 mmHg 71%
14:00 +28°C° 0.4 mm 2 mps 724 mmHg 73%
15:00 +28°C° 0.4 mm 1 mps 724 mmHg 75%
16:00 +27°C° 0.1 mm 1 mps 724 mmHg 78%
17:00 +26°C° 0.1 mm 1 mps 724 mmHg 81%
18:00 +23°C° 0.1 mm 0 mps 723 mmHg 85%
19:00 +23°C° 0.2 mm 0 mps 724 mmHg 86%
20:00 +22°C° 0.2 mm 0 mps 724 mmHg 86%
21:00 +22°C° 0.2 mm 0 mps 725 mmHg 87%
22:00 +22°C° 0.6 mm 0 mps 725 mmHg 89%
23:00 +21°C° 0.6 mm 0 mps 724 mmHg 92%

17 July, Friday

Time Temperature Precipitation Wind Pressure Humidity
00:00 +21°C° 0.6 mm 0 mps 724 mmHg 94%
01:00 +21°C° 0.1 mm 0 mps 724 mmHg 94%
02:00 +21°C° 0.1 mm 0 mps 724 mmHg 95%
03:00 +23°C° 0.1 mm 1 mps 723 mmHg 95%
04:00 +21°C° 0.2 mm 0 mps 724 mmHg 95%
05:00 +20°C° 0.2 mm 0 mps 724 mmHg 95%
06:00 +20°C° 0.2 mm 0 mps 724 mmHg 96%
07:00 +23°C° 0.5 mm 1 mps 724 mmHg 93%
08:00 +24°C° 0.5 mm 1 mps 725 mmHg 90%
09:00 +25°C° 0.5 mm 1 mps 725 mmHg 88%
10:00 +26°C° 2.1 mm 2 mps 725 mmHg 87%
11:00 +26°C° 2.1 mm 2 mps 725 mmHg 87%
12:00 +26°C° 2.1 mm 2 mps 724 mmHg 86%
13:00 +26°C° 1.8 mm 2 mps 724 mmHg 86%
14:00 +26°C° 1.8 mm 3 mps 723 mmHg 87%
15:00 +26°C° 1.8 mm 3 mps 723 mmHg 87%
16:00 +25°C° 0.4 mm 2 mps 723 mmHg 89%
17:00 +25°C° 0.4 mm 2 mps 723 mmHg 91%
18:00 +24°C° 0.4 mm 2 mps 723 mmHg 92%
19:00 +24°C° 0 mm 1 mps 723 mmHg 93%
20:00 +24°C° 0 mm 1 mps 724 mmHg 94%
21:00 +23°C° 0 mm 1 mps 724 mmHg 94%
22:00 +23°C° 0 mm 1 mps 724 mmHg 94%
23:00 +23°C° 0 mm 1 mps 724 mmHg 95%

18 July, Saturday

Time Temperature Precipitation Wind Pressure Humidity
00:00 +23°C° 0 mm 1 mps 724 mmHg 95%
01:00 +23°C° 0 mm 1 mps 724 mmHg 95%
02:00 +23°C° 0 mm 1 mps 723 mmHg 95%
03:00 +23°C° 0 mm 1 mps 723 mmHg 94%
04:00 +22°C° 0 mm 1 mps 724 mmHg 95%
05:00 +22°C° 0 mm 1 mps 724 mmHg 96%
06:00 +22°C° 0 mm 1 mps 724 mmHg 96%
07:00 +23°C° 0 mm 1 mps 725 mmHg 95%
08:00 +23°C° 0 mm 1 mps 725 mmHg 94%
09:00 +23°C° 0 mm 2 mps 726 mmHg 92%
10:00 +24°C° 0.1 mm 2 mps 725 mmHg 91%
11:00 +24°C° 0.1 mm 2 mps 725 mmHg 89%
12:00 +25°C° 0.1 mm 2 mps 724 mmHg 87%
13:00 +25°C° 0 mm 2 mps 724 mmHg 87%
14:00 +24°C° 0 mm 2 mps 723 mmHg 88%
15:00 +24°C° 0 mm 2 mps 723 mmHg 88%
16:00 +24°C° 0 mm 1 mps 723 mmHg 89%
17:00 +24°C° 0 mm 1 mps 722 mmHg 90%
18:00 +23°C° 0 mm 1 mps 722 mmHg 91%
19:00 +23°C° 0 mm 1 mps 723 mmHg 91%
20:00 +23°C° 0 mm 1 mps 723 mmHg 91%
21:00 +23°C° 0 mm 1 mps 724 mmHg 91%
22:00 +23°C° 0 mm 1 mps 724 mmHg 92%
23:00 +23°C° 0 mm 1 mps 724 mmHg 92%
Show more